Blattenbach Aussen Messungen

Zurück zum Überblick

Zeitpunkt Temperatur Temperatur Kabelsensor Luftfeuchte
24.03.2019 21:41:01 11,5 C 10,0 C 56,0%
24.03.2019 21:34:03 11,6 C 10,1 C 56,0%
24.03.2019 21:27:00 11,7 C 10,1 C 56,0%
24.03.2019 21:20:02 11,7 C 10,1 C 56,0%
24.03.2019 21:13:03 11,5 C 10,1 C 57,0%
24.03.2019 21:05:59 11,4 C 10,1 C 59,0%
24.03.2019 20:59:01 11,4 C 10,1 C 57,0%
24.03.2019 20:52:00 11,3 C 10,2 C 58,0%
24.03.2019 20:45:00 11,2 C 10,2 C 58,0%
24.03.2019 20:38:02 11,1 C 10,2 C 58,0%
24.03.2019 20:31:01 11,0 C 10,3 C 57,0%
24.03.2019 20:24:03 10,9 C 10,3 C 57,0%
24.03.2019 20:17:03 11,0 C 10,3 C 56,0%
24.03.2019 20:10:02 11,1 C 10,4 C 55,0%
24.03.2019 20:03:02 11,5 C 10,4 C 53,0%
24.03.2019 19:56:01 11,9 C 10,4 C 51,0%
24.03.2019 19:49:01 12,2 C 10,4 C 50,0%
24.03.2019 19:42:01 12,3 C 10,4 C 49,0%
24.03.2019 19:35:03 12,4 C 10,5 C 49,0%
24.03.2019 19:28:00 12,4 C 10,5 C 49,0%
24.03.2019 19:21:01 12,5 C 10,5 C 48,0%
24.03.2019 19:14:00 12,4 C 10,6 C 49,0%
24.03.2019 19:07:03 12,3 C 10,7 C 50,0%
24.03.2019 19:00:03 12,4 C 10,7 C 52,0%
24.03.2019 18:53:00 12,8 C 10,8 C 50,0%
24.03.2019 18:46:02 13,2 C 10,8 C 49,0%
24.03.2019 18:39:02 13,5 C 10,9 C 49,0%
24.03.2019 18:32:03 13,7 C 10,9 C 48,0%
24.03.2019 18:25:03 14,2 C 11,0 C 48,0%
24.03.2019 18:18:00 14,6 C 11,0 C 46,0%
24.03.2019 18:11:02 15,0 C 11,1 C 45,0%
24.03.2019 18:04:02 15,3 C 11,2 C 45,0%
24.03.2019 17:57:03 15,6 C 11,2 C 44,0%
24.03.2019 17:50:01 15,8 C 11,3 C 44,0%
24.03.2019 17:43:03 16,1 C 11,3 C 44,0%
24.03.2019 17:36:02 16,3 C 11,2 C 44,0%
24.03.2019 17:29:01 16,5 C 11,2 C 44,0%
24.03.2019 17:22:02 16,7 C 11,2 C 43,0%
24.03.2019 17:15:01 16,8 C 11,1 C 44,0%
24.03.2019 17:08:03 16,8 C 11,1 C 43,0%
24.03.2019 17:01:03 16,8 C 11,0 C 44,0%
24.03.2019 16:54:00 17,0 C 11,0 C 44,0%
24.03.2019 16:47:02 16,9 C 10,9 C 44,0%
24.03.2019 16:40:01 17,0 C 10,8 C 43,0%
24.03.2019 16:33:02 17,0 C 10,7 C 43,0%
24.03.2019 16:25:48 17,0 C 10,6 C 44,0%
24.03.2019 16:18:44 16,9 C 10,5 C 44,0%
24.03.2019 16:11:46 16,9 C 10,4 C 44,0%
24.03.2019 16:04:45 16,9 C 10,4 C 45,0%
24.03.2019 15:57:47 16,8 C 10,2 C 45,0%